Change the Weather History Date:

Wednesday, July 10, 2013

  Actual Average Record
Temperature  
Mean Temperature 80 °F 78 °F  
Max Temperature 90 °F 87 °F 100 °F (1988)
Min Temperature 70 °F 69 °F 52 °F (1961)
Degree Days  
Heating Degree Days 0 0  
Month to date heating degree days 0 0  
Since 1 June heating degree days 0 3  
Since 1 July heating degree days 0 0  
Cooling Degree Days 15 13  
Month to date cooling degree days 102 130  
Year to date cooling degree days 585 582  
Since 1 June cooling degree days 399 435  
Growing Degree Days 30 (Base 50)    
Moisture  
Dew Point 71 °F    
Average Humidity 76    
Maximum Humidity 87    
Minimum Humidity 64    
Precipitation  
Precipitation 0.87 in 0.12 in 2.16 in (1991)
Month to date precipitation 2.59 1.10  
Year to date precipitation 29.92 25.16  
Sea Level Pressure  
Sea Level Pressure 29.95 in    
Wind  
Wind Speed 5 mph (SW)    
Max Wind Speed 36 mph    
Max Gust Speed 47 mph    
Visibility 8 miles    
Events Fog , Rain , Thunderstorm    
T = Trace of Precipitation, MM = Missing Value Source: NWS Daily Summary

Daily Weather History Graph

Daily Weather History Graph

Search for Another Location

Airport or City:

Trip Planner

Search our weather history database for the weather conditions in past years. The results will help you decide how hot, cold, wet, or windy it might be!

Date:

Astronomy

Jul. 10, 2013 Rise Set
Actual Time 6:28 AM EDT 9:07 PM EDT
Civil Twilight 5:57 AM EDT 9:38 PM EDT
Nautical Twilight 5:18 AM EDT 10:17 PM EDT
Astronomical Twilight 4:35 AM EDT 11:00 PM EDT
Moon 8:45 AM EDT (7/10) 10:20 PM EDT (7/10)
Length of Visible Light 15h 41m
Length of Day
14h 39m
Waxing Crescent, 5% of the Moon is Illuminated
Jul 10
Waxing Crescent
Jul 15
First Quarter
Jul 22
Full
Jul 29
Last Quarter
Aug 6
New

Hourly Weather History & Observations

Time (EDT) Temp. Heat Index Dew Point Humidity Pressure Visibility Wind Dir Wind Speed Gust Speed Precip Events Conditions
12:53 AM 82.0 °F 86.7 °F 72.0 °F 71% 30.01 in 10.0 mi South 3.5 mph - N/A   Clear
1:53 AM 81.0 °F 85.8 °F 73.0 °F 77% 29.99 in 10.0 mi South 3.5 mph - N/A   Clear
2:53 AM 80.1 °F 84.5 °F 73.9 °F 81% 29.99 in 10.0 mi South 3.5 mph - 0.00 in   Partly Cloudy
3:53 AM 79.0 °F - 73.0 °F 82% 29.98 in 10.0 mi Calm Calm - N/A   Clear
4:53 AM 79.0 °F - 73.0 °F 82% 29.99 in 10.0 mi Calm Calm - N/A   Clear
5:53 AM 78.1 °F - 73.0 °F 84% 29.97 in 10.0 mi Calm Calm - N/A   Clear
6:53 AM 78.1 °F - 73.0 °F 84% 29.97 in 10.0 mi SSE 3.5 mph - N/A   Partly Cloudy
7:53 AM 80.1 °F 84.2 °F 73.0 °F 79% 29.96 in 10.0 mi South 4.6 mph - N/A   Clear
8:53 AM 82.9 °F 88.8 °F 73.0 °F 72% 29.96 in 10.0 mi SSW 5.8 mph - N/A   Clear
9:53 AM 84.0 °F 91.2 °F 73.9 °F 72% 29.97 in 10.0 mi SSW 8.1 mph - N/A   Clear
10:53 AM 84.9 °F 92.1 °F 73.9 °F 69% 29.95 in 10.0 mi SSW 6.9 mph - N/A   Clear
11:53 AM 89.1 °F 99.1 °F 75.0 °F 63% 29.91 in 10.0 mi South 8.1 mph - N/A   Clear
12:53 PM 90.0 °F 100.2 °F 75.0 °F 61% 29.95 in 10.0 mi SSW 10.4 mph - N/A   Clear
1:22 PM 89.6 °F 99.8 °F 75.2 °F 62% 29.98 in 10.0 mi West 16.1 mph 20.7 mph N/A Thunderstorm Thunderstorm
1:53 PM 84.9 °F 96.6 °F 78.1 °F 80% 29.93 in 10.0 mi West 6.9 mph - 0.01 in Thunderstorm Thunderstorm
2:49 PM 78.8 °F - 71.6 °F 78% 29.96 in 0.8 mi West 33.4 mph 44.9 mph 0.17 in Rain , Thunderstorm Light Thunderstorms and Rain
2:53 PM 72.0 °F - 69.1 °F 91% 29.95 in 0.2 mi WNW 34.5 mph 44.9 mph 0.36 in Fog , Rain , Thunderstorm Heavy Thunderstorms and Rain
2:58 PM 71.6 °F - 69.8 °F 94% 29.96 in 0.2 mi NW 33.4 mph 47.2 mph 0.36 in Fog , Rain , Thunderstorm Heavy Thunderstorms and Rain
3:03 PM 69.8 °F - 68.0 °F 94% 29.96 in 0.2 mi NW 24.2 mph 47.2 mph 0.46 in Fog , Rain , Thunderstorm Heavy Thunderstorms and Rain
3:09 PM 71.6 °F - 68.0 °F 88% 29.95 in 1.0 mi NNW 13.8 mph 33.4 mph 0.49 in Rain , Thunderstorm Heavy Thunderstorms and Rain
3:16 PM 71.6 °F - 68.0 °F 88% 29.96 in 4.0 mi NNW 9.2 mph 23.0 mph 0.49 in Rain , Thunderstorm Light Thunderstorms and Rain
3:42 PM 71.6 °F - 68.0 °F 88% 29.93 in 10.0 mi SSW 4.6 mph - 0.49 in   Scattered Clouds
3:53 PM 71.1 °F - 69.1 °F 93% 29.91 in 10.0 mi WSW 4.6 mph - 0.49 in Thunderstorm Mostly Cloudy
4:10 PM 71.6 °F - 69.8 °F 94% 29.91 in 10.0 mi Calm Calm - 0.01 in Rain Light Rain
4:53 PM 72.0 °F - 69.1 °F 91% 29.89 in 10.0 mi South 5.8 mph - 0.01 in   Clear
5:53 PM 73.0 °F - 70.0 °F 90% 29.88 in 10.0 mi South 4.6 mph - N/A   Clear
6:53 PM 75.0 °F - 69.1 °F 82% 29.90 in 10.0 mi SW 3.5 mph - N/A   Clear
7:53 PM 75.0 °F - 69.1 °F 82% 29.92 in 10.0 mi SW 3.5 mph - N/A   Clear
8:53 PM 73.9 °F - 68.0 °F 82% 29.92 in 10.0 mi SSW 5.8 mph - N/A   Clear
9:53 PM 73.9 °F - 69.1 °F 85% 29.93 in 10.0 mi Calm Calm - N/A   Mostly Cloudy
10:53 PM 73.0 °F - 69.1 °F 87% 29.94 in 10.0 mi SW 3.5 mph - N/A   Clear
11:53 PM 73.0 °F - 69.1 °F 87% 29.94 in 10.0 mi Calm Calm - N/A   Clear